Radiation Dose at Monitoring Post of Fukushima Daini Nuclear Power Station
Date,Time,MP-1(microSv/h),MP-2(microSv/h),MP-3(microSv/h),MP-4(microSv/h),MP-5(microSv/h),MP-6(microSv/h),MP-7(microSv/h),Wind Direction,Wind Velocity(m/s),Rain
2015/12/09,00:00,0.459,0.272,0.489,0.445,0.423,0.224,0.197,northwest,1.7,No
2015/12/09,00:10,0.462,0.271,0.492,0.443,0.423,0.224,0.197,north-northwest,1.5,No
2015/12/09,00:20,0.461,0.272,0.490,0.441,0.422,0.224,0.196,north-northwest,1.4,No
2015/12/09,00:30,0.461,0.272,0.489,0.443,0.421,0.224,0.197,north-northwest,1.4,No
2015/12/09,00:40,0.460,0.271,0.489,0.444,0.422,0.225,0.196,north-northwest,1.1,No
2015/12/09,00:50,0.460,0.270,0.491,0.443,0.422,0.224,0.196,north-northwest,1.9,No
2015/12/09,01:00,0.460,0.270,0.490,0.443,0.422,0.224,0.196,north-northwest,1.7,No
2015/12/09,01:10,0.462,0.272,0.486,0.442,0.422,0.223,0.196,north-northwest,2.8,No
2015/12/09,01:20,0.462,0.271,0.489,0.443,0.422,0.224,0.197,north-northwest,3.1,No
2015/12/09,01:30,0.461,0.271,0.490,0.443,0.423,0.224,0.196,north-northwest,3.1,No
2015/12/09,01:40,0.460,0.271,0.491,0.443,0.422,0.223,0.197,north-northwest,3.2,No
2015/12/09,01:50,0.460,0.271,0.489,0.442,0.421,0.224,0.197,north-northwest,2.3,No
2015/12/09,02:00,0.461,0.271,0.489,0.442,0.422,0.224,0.198,north,3.6,No
2015/12/09,02:10,0.460,0.271,0.491,0.444,0.423,0.224,0.196,north,2.4,No
2015/12/09,02:20,0.459,0.272,0.491,0.442,0.422,0.224,0.197,north,2.4,No
2015/12/09,02:30,0.462,0.271,0.490,0.442,0.421,0.223,0.196,north-northwest,2.8,No
2015/12/09,02:40,0.458,0.272,0.490,0.441,0.420,0.224,0.197,north,2.7,No
2015/12/09,02:50,0.460,0.271,0.491,0.442,0.421,0.223,0.197,northwest,2.4,No
2015/12/09,03:00,0.461,0.272,0.491,0.442,0.423,0.223,0.196,north-northwest,3.2,No
2015/12/09,03:10,0.461,0.273,0.490,0.441,0.423,0.223,0.196,north,2.4,No
2015/12/09,03:20,0.461,0.271,0.488,0.443,0.419,0.223,0.197,north-northwest,1.6,No
2015/12/09,03:30,0.459,0.271,0.491,0.442,0.422,0.225,0.196,north,0.9,No
2015/12/09,03:40,0.459,0.271,0.492,0.442,0.423,0.224,0.197,-,CALM,No
2015/12/09,03:50,0.461,0.271,0.490,0.442,0.424,0.224,0.196,-,CALM,No
2015/12/09,04:00,0.460,0.272,0.488,0.441,0.422,0.224,0.197,-,CALM,No
2015/12/09,04:10,0.460,0.271,0.491,0.443,0.420,0.226,0.196,north,1.6,No
2015/12/09,04:20,0.458,0.272,0.490,0.443,0.422,0.224,0.195,north-northwest,2.8,No
2015/12/09,04:30,0.460,0.271,0.492,0.442,0.421,0.224,0.197,north,1.6,No
2015/12/09,04:40,0.461,0.271,0.488,0.442,0.422,0.225,0.197,north,1.2,No
2015/12/09,04:50,0.460,0.271,0.489,0.441,0.421,0.224,0.196,north-northwest,0.6,No
2015/12/09,05:00,0.458,0.271,0.490,0.443,0.422,0.225,0.197,-,CALM,No
2015/12/09,05:10,0.460,0.271,0.491,0.441,0.420,0.224,0.197,-,CALM,No
2015/12/09,05:20,0.460,0.271,0.489,0.441,0.421,0.223,0.196,west-southwest,1.0,No
2015/12/09,05:30,0.461,0.272,0.491,0.443,0.421,0.223,0.195,west-southwest,1.0,No
2015/12/09,05:40,0.460,0.271,0.490,0.442,0.421,0.223,0.197,west-southwest,1.4,No
2015/12/09,05:50,0.459,0.272,0.489,0.442,0.420,0.222,0.196,west-southwest,1.4,No
2015/12/09,06:00,0.460,0.270,0.488,0.443,0.422,0.224,0.196,west-southwest,2.1,No
2015/12/09,06:10,0.459,0.271,0.491,0.441,0.423,0.224,0.196,west-southwest,2.0,No
2015/12/09,06:20,0.461,0.272,0.491,0.441,0.423,0.223,0.197,west,1.2,No
2015/12/09,06:30,0.458,0.272,0.489,0.443,0.419,0.224,0.196,west-northwest,0.7,No
2015/12/09,06:40,0.458,0.271,0.489,0.441,0.422,0.224,0.197,northwest,1.7,No
2015/12/09,06:50,0.460,0.270,0.490,0.442,0.423,0.223,0.196,northwest,1.6,No
2015/12/09,07:00,0.460,0.271,0.491,0.440,0.422,0.223,0.196,north,1.8,No
2015/12/09,07:10,0.458,0.271,0.489,0.441,0.421,0.223,0.196,north-northwest,1.8,No
2015/12/09,07:20,0.461,0.271,0.490,0.443,0.421,0.225,0.196,northwest,1.6,No
2015/12/09,07:30,0.461,0.271,0.488,0.443,0.420,0.223,0.196,northwest,1.8,No
2015/12/09,07:40,0.460,0.271,0.490,0.442,0.423,0.224,0.196,north-northwest,1.3,No
2015/12/09,07:50,0.459,0.270,0.490,0.441,0.421,0.223,0.195,north-northwest,1.9,No
2015/12/09,08:00,0.460,0.270,0.489,0.443,0.422,0.224,0.196,north-northwest,2.4,No
2015/12/09,08:10,0.460,0.271,0.487,0.442,0.421,0.223,0.196,north,1.9,No
2015/12/09,08:20,0.461,0.272,0.493,0.440,0.421,0.223,0.197,north-northeast,1.9,No
2015/12/09,08:30,0.461,0.270,0.489,0.441,0.421,0.222,0.196,northeast,0.7,No
2015/12/09,08:40,0.460,0.271,0.486,0.440,0.421,0.221,0.196,-,CALM,No
2015/12/09,08:50,0.460,0.271,0.490,0.440,0.422,0.223,0.196,northeast,0.8,No
2015/12/09,09:00,0.461,0.271,0.490,0.441,0.423,0.222,0.195,west-southwest,0.7,No
2015/12/09,09:10,0.459,0.272,0.488,0.438,0.422,0.223,0.197,south-southeast,1.0,No
2015/12/09,09:20,0.461,0.271,0.488,0.443,0.421,0.223,0.196,southeast,1.3,No
2015/12/09,09:30,0.459,0.270,0.489,0.438,0.424,0.224,0.197,southeast,1.8,No
2015/12/09,09:40,0.459,0.271,0.489,0.442,0.420,0.224,0.195,southeast,2.1,No
2015/12/09,09:50,0.460,0.268,0.487,0.441,0.423,0.224,0.197,east-southeast,1.4,No
2015/12/09,10:00,0.461,0.270,0.490,0.443,0.421,0.223,0.196,east-southeast,1.7,No
2015/12/09,10:10,0.457,0.269,0.492,0.441,0.421,0.223,0.197,east,1.9,No
2015/12/09,10:20,0.460,0.269,0.486,0.443,0.423,0.224,0.196,east-southeast,2.0,No
2015/12/09,10:30,0.456,0.270,0.490,0.443,0.421,0.224,0.196,east-southeast,1.5,No
2015/12/09,10:40,0.459,0.270,0.488,0.441,0.424,0.224,0.197,east-southeast,1.8,No
2015/12/09,10:50,0.456,0.270,0.488,0.445,0.419,0.224,0.196,east-southeast,1.7,No
2015/12/09,11:00,0.460,0.270,0.491,0.443,0.424,0.224,0.197,east-southeast,1.7,No
2015/12/09,11:10,0.459,0.271,0.487,0.444,0.421,0.223,0.198,southeast,2.1,No
2015/12/09,11:20,0.461,0.270,0.490,0.442,0.425,0.225,0.197,southeast,2.4,No
2015/12/09,11:30,0.459,0.272,0.486,0.444,0.421,0.225,0.198,south-southeast,2.8,No
2015/12/09,11:40,0.462,0.270,0.488,0.442,0.425,0.224,0.196,south-southeast,2.6,No
2015/12/09,11:50,0.460,0.271,0.486,0.442,0.421,0.223,0.197,south-southeast,3.0,No
2015/12/09,12:00,0.462,0.269,0.489,0.443,0.426,0.225,0.197,south-southeast,3.6,No
2015/12/09,12:10,0.458,0.271,0.486,0.442,0.421,0.225,0.198,south-southeast,3.1,No
2015/12/09,12:20,0.461,0.270,0.487,0.442,0.425,0.224,0.197,south-southeast,4.2,No
2015/12/09,12:30,0.457,0.270,0.487,0.444,0.424,0.223,0.197,south-southeast,4.6,No
2015/12/09,12:40,0.462,0.272,0.490,0.441,0.425,0.224,0.197,south-southeast,4.1,No
2015/12/09,12:50,0.460,0.271,0.484,0.443,0.421,0.224,0.197,south-southeast,4.6,No
2015/12/09,13:00,0.463,0.271,0.490,0.443,0.427,0.224,0.197,south-southeast,3.8,No
2015/12/09,13:10,0.459,0.272,0.485,0.442,0.425,0.225,0.197,south-southeast,3.9,No
2015/12/09,13:20,0.462,0.271,0.490,0.442,0.426,0.224,0.196,south-southeast,4.0,No
2015/12/09,13:30,0.460,0.272,0.487,0.442,0.425,0.224,0.197,south-southeast,3.9,No
2015/12/09,13:40,0.462,0.269,0.490,0.442,0.422,0.224,0.196,south,3.9,No
2015/12/09,13:50,0.462,0.272,0.487,0.444,0.425,0.225,0.197,south,3.9,No
2015/12/09,14:00,0.462,0.270,0.492,0.442,0.424,0.225,0.196,south-southeast,4.0,No
2015/12/09,14:10,0.464,0.271,0.489,0.442,0.424,0.224,0.198,south-southeast,4.1,No
2015/12/09,14:20,0.461,0.271,0.491,0.442,0.424,0.224,0.198,south,4.6,No
2015/12/09,14:30,0.465,0.271,0.489,0.444,0.422,0.222,0.197,south,4.8,No
2015/12/09,14:40,0.462,0.272,0.490,0.444,0.426,0.224,0.197,south,6.0,No
2015/12/09,14:50,0.462,0.273,0.490,0.444,0.422,0.223,0.198,south,5.5,No
2015/12/09,15:00,0.464,0.272,0.490,0.447,0.423,0.224,0.198,south,4.5,No
2015/12/09,15:10,0.461,0.271,0.490,0.443,0.425,0.224,0.198,south,5.1,No
2015/12/09,15:20,0.463,0.271,0.488,0.446,0.423,0.225,0.196,south-southeast,5.3,No
2015/12/09,15:30,0.462,0.272,0.491,0.446,0.424,0.224,0.195,south,5.0,No
2015/12/09,15:40,0.461,0.270,0.488,0.444,0.422,0.224,0.197,south,4.2,No
2015/12/09,15:50,0.464,0.273,0.490,0.447,0.423,0.224,0.197,south,5.6,No
2015/12/09,16:00,0.461,0.273,0.491,0.443,0.425,0.223,0.197,south,5.9,No
2015/12/09,16:10,0.461,0.271,0.487,0.444,0.422,0.224,0.198,south-southwest,6.8,No
2015/12/09,16:20,0.465,0.271,0.492,0.445,0.424,0.224,0.197,south-southwest,5.9,No
2015/12/09,16:30,0.460,0.271,0.489,0.443,0.425,0.224,0.198,south-southwest,5.8,No
2015/12/09,16:40,0.461,0.272,0.491,0.444,0.424,0.223,0.198,south-southwest,5.9,No
2015/12/09,16:50,0.462,0.271,0.491,0.444,0.424,0.223,0.197,south-southwest,5.5,No
2015/12/09,17:00,0.462,0.271,0.490,0.443,0.425,0.224,0.198,south-southwest,5.2,No
2015/12/09,17:10,0.461,0.272,0.490,0.446,0.423,0.224,0.197,south-southwest,5.9,No
2015/12/09,17:20,0.462,0.271,0.493,0.444,0.423,0.223,0.198,south-southwest,5.7,No
2015/12/09,17:30,0.462,0.272,0.490,0.445,0.424,0.223,0.198,south-southwest,5.5,No
2015/12/09,17:40,0.462,0.271,0.490,0.446,0.422,0.225,0.198,south-southwest,6.5,No
2015/12/09,17:50,0.462,0.272,0.492,0.446,0.423,0.224,0.198,south-southwest,6.1,No
2015/12/09,18:00,0.462,0.272,0.488,0.442,0.424,0.224,0.198,south-southwest,5.9,No
2015/12/09,18:10,0.462,0.272,0.489,0.444,0.425,0.225,0.198,south-southwest,6.7,No
2015/12/09,18:20,0.463,0.272,0.491,0.444,0.423,0.225,0.199,south-southwest,7.3,No
2015/12/09,18:30,0.462,0.273,0.492,0.443,0.424,0.225,0.199,south-southwest,7.2,No
2015/12/09,18:40,0.462,0.272,0.489,0.444,0.425,0.224,0.198,south-southwest,7.3,No
2015/12/09,18:50,0.462,0.272,0.492,0.443,0.423,0.225,0.197,south-southwest,8.1,No
2015/12/09,19:00,0.461,0.273,0.491,0.445,0.422,0.226,0.198,south-southwest,8.2,No
2015/12/09,19:10,0.462,0.273,0.490,0.443,0.423,0.224,0.198,south-southwest,7.6,No
2015/12/09,19:20,0.461,0.273,0.490,0.444,0.423,0.224,0.198,south-southwest,7.9,No
2015/12/09,19:30,0.463,0.271,0.491,0.447,0.422,0.225,0.197,south-southwest,6.7,No
2015/12/09,19:40,0.461,0.271,0.488,0.444,0.423,0.224,0.198,south-southwest,5.7,No
2015/12/09,19:50,0.462,0.274,0.491,0.444,0.424,0.224,0.198,south-southwest,4.9,No
2015/12/09,20:00,0.461,0.272,0.492,0.445,0.424,0.225,0.199,south-southwest,4.3,No
2015/12/09,20:10,0.462,0.272,0.491,0.445,0.423,0.224,0.198,southwest,2.9,No
2015/12/09,20:20,0.463,0.272,0.489,0.444,0.423,0.225,0.198,southwest,3.0,No
2015/12/09,20:30,0.462,0.272,0.492,0.443,0.424,0.225,0.198,southwest,3.5,No
2015/12/09,20:40,0.463,0.273,0.492,0.445,0.423,0.226,0.199,west-southwest,3.9,No
2015/12/09,20:50,0.461,0.273,0.489,0.443,0.424,0.225,0.198,southwest,3.4,No
2015/12/09,21:00,0.461,0.272,0.489,0.443,0.424,0.224,0.198,southwest,2.7,No
2015/12/09,21:10,0.461,0.272,0.493,0.443,0.424,0.226,0.198,southwest,2.9,No
2015/12/09,21:20,0.462,0.272,0.492,0.446,0.423,0.226,0.198,southwest,3.2,No
2015/12/09,21:30,0.461,0.274,0.491,0.444,0.421,0.226,0.198,southwest,5.2,No
2015/12/09,21:40,0.461,0.273,0.492,0.444,0.425,0.225,0.199,southwest,4.2,No
2015/12/09,21:50,0.462,0.271,0.493,0.444,0.424,0.225,0.199,southwest,2.8,No
2015/12/09,22:00,0.462,0.272,0.490,0.446,0.422,0.225,0.199,southwest,3.0,No
2015/12/09,22:10,-,-,-,-,-,-,-,-,-,-
2015/12/09,22:20,0.460,0.272,0.491,0.445,0.424,0.224,0.197,southwest,3.4,No
2015/12/09,22:30,0.462,0.271,0.491,0.444,0.424,0.225,0.197,southwest,3.7,No
2015/12/09,22:40,0.460,0.272,0.490,0.443,0.423,0.224,0.199,southwest,4.2,No
2015/12/09,22:50,0.460,0.272,0.490,0.443,0.424,0.225,0.198,southwest,6.3,No
2015/12/09,23:00,0.462,0.273,0.492,0.443,0.423,0.224,0.199,southwest,8.6,No
2015/12/09,23:10,0.463,0.271,0.490,0.445,0.422,0.225,0.198,southwest,9.3,No
2015/12/09,23:20,0.462,0.272,0.491,0.446,0.422,0.225,0.198,west-southwest,8.5,No
2015/12/09,23:30,0.461,0.272,0.490,0.444,0.423,0.225,0.198,southwest,5.0,No
2015/12/09,23:40,0.463,0.271,0.492,0.445,0.425,0.225,0.198,southwest,4.1,No
2015/12/09,23:50,0.463,0.272,0.490,0.445,0.421,0.224,0.198,southwest,7.7,No
